ATLAS AGENA D R/B, 2144

Orbit data source: Space-Track

ATLAS AGENA D R/B, 2144 is space debris in LEO originally from a launch on Fri, 08 Apr 1966 UTC launched from the Air Force Eastern Test Range (AFETR). Debris objects in space refer to the collection of defunct objects orbiting the Earth. Examples of debris include non-operational satellites, rocket bodies, and fragments generated from explosions, collisions, or faulty payload assembly.

Loading next visibility...
Identifier
2144, 1966-031B
Orbit
LEO
Country
Flag of USUS
Related business
Manufacturer
LMSC
Mission
Spacecraft
Bus & Motor
AGENA D, Unknown motor
Mass
769 kg wet, 769 kg dry
Launch date (UTC)
1966-04-08 (60 years ago)
Launch vehicle
Unknown
Launch site
Air Force Eastern Test Range (AFETR)
Object type
Payload
Rocket body
Debris
Shape & HBR
Unknown
Radar Cross Section
Large (>1 m²)

Expand to show TLE details & history
Last TLE update: 21 hours ago

TLE from 21 hours ago
0 ATLAS AGENA D R/B
1 02144U 66031B   26073.53386138  .00000405  00000-0  12024-3 0  9993
2 02144  35.0405 145.9218 0008307 337.6422  22.3906 14.44894606149074
Epoch: 2026-03-14T12:48Z
TLE epoch observation values (Epoch: 2026-03-14T12:48:45.623Z)
Latitude
-0°
Longitude
141.57803°
Altitude
735.854 km
Speed
7.492 km/s
True Right ascension
09h 43m 41s
True Declination
0° 00' 00"
Sunlit
Object was in full shadow at epoch
Visualization orbit readout
Latitude
Unknown
Longitude
Unknown
Altitude
Unknown
Speed
Unknown
Apparent Right ascension
Unknown
Apparent Declination
Unknown
Sunlit
N/A
Visualization observer readout
Local Sidereal Time
14:44:21
Azimuth
Unknown
Elevation
Unknown
Doppler factor
Unknown
Orbital elements
Apogee altitude
751.422 km
Perigee altitude
739.587 km
Semi-major axis
7,123.641 km
Eccentricity
0.00083
Inclination
35.0405°
RAAN
145.9218°
Arg. of periapsis
337.6422°
True anomaly
22.42689°
Mean anomaly
22.3906°
Eccentric anomaly
22.40874°
Mean motion
3.60986 °/min
Orbital period
99.73 mins
BSTAR
0.00012024
Loading maneuver chart data...
Computing Atmospheric mass density...
Loading historical data...
Loading historical data...
Loading historical data...
Loading historical data...
Loading historical data...
Loading historical data...
Loading historical data...
Other satellites on launch #31 in the year 1966 (1966-04-08 UTC)

Documentation

Showing up to 5 results
|